Погода в Гвасюги

Погода в Гвасюги : погода сейчас, прогноз погоды и архив. Всё, что Вы хотите узнать о погоде в Гвасюги!

Поиск расширенной информации на нашем сайте:

Другие новости

Новости СМИ2

Главная страница сайта

Новости сайта

03.07.2017

Напоминаем, что на нашем специализированном сайте Метеоцентр.Азия вы можете получить высокодетализированные автоматические прогнозы погоды по пунктам России, СНГ и мира в авиационном формате (включающие направление и скорость ветра, видимость, явления погоды, количество и форму облачности, нижнюю и верхнюю границу облачности).


Погода в Гвасюги - сегодня

Время (UTC), дата Ветер
(°,м/с) 
Видим.   Явления Облачность Т
(°С)
Тd
(°С)
f(%) Тe
(°С)
Pmin
(гПа)
dP
(гПа)
Po
(мм)
O2
(г/м3)
Тmin Tmax R s Состояние
почвы
00 20.02.18 тихо ()   20000 м    8/0 средняя, верхняя 
[Ac lent|Ci fib]
-22 -25.3 74 -22  1014.4  0.3  743  327           
03 20.02.18 260 (З) 20000 м    10/8 600 м кучево-дожд., верхняя 
[Cb cap|Ci sp]
-13.9 -22.2 49 -18  1012.7  -0.9  742  316           
06 20.02.18 290 (З) 20000 м  {ливн. осадки}  8/4 600 м кучево-дожд., верхняя 
[Cb cap|Ci sp]
-13.5 -24.3 40 -17  1012.6  742  316           
12 20.02.18 260 (З) 20000 м    10/0 верхняя 
[Cs]
-20.3 -24 72 -21  1016.4  0.7  744  326           
15 20.02.18 тихо ()   20000 м    4/0 верхняя 
[Ci fib]
-25 -27.5 80 -25  1016.4  -0.5  744  332           
18 20.02.18 тихо ()   20000 м    ясно 
-28.2 -31.1 76 -28  1016.8  0.1  744  336           
00 21.02.18 тихо ()   20000 м    ясно 
-22 -26.7 66 -22  1018  745  328  -33.1         
03 21.02.18 270 (З) 20000 м    1/1 600 м 
[Cu hum]
-13.6 -25.5 36 -17  1015.6  -1.5  744  317           
06 21.02.18 260 (З) 20000 м    3/1 600 м верхняя 
[Cu hum|Ci fib]
-11.4 -25.8 29 -15  1014.3  -1.1  743  314           
12 21.02.18 090 (В) 20000 м    3/0 верхняя 
[Ci fib]
-26.9 -29.6 78 -28  1018.6  1.9  745  335           
15 21.02.18 050 (СВ) 20000 м    3/0 верхняя 
[Ci fib]
-30.5 -33.7 74 -31  1018.6  -0.3  745  340           
18 21.02.18 350 (С) 20000 м    1/0 верхняя 
[Ci fib]
-30.4 -33.6 73 -34  1018.2  -0.5  745  340           
00 22.02.18 350 (С) 10 км  слаб. снег  10/3 600 м верхняя 
[Sc|Cs]
-23.3 -26.6 74 -24  1017.6  0.5  745  330           
03 22.02.18 тихо ()   20000 м  {снег}  10/4 600 м средняя, верхняя 
[Cu hum|Ac cast|Cs]
-12 -17.8 62 -12  1015.1  -1.4  744  315           
06 22.02.18 тихо ()   20000 м  {снег}  8/4 600 м кучево-дожд., верхняя 
[Cb cap|Ci fib]
-8.3 -15.6 56 -8  1013.6  -1.1  743  310           
09 22.02.18 тихо ()   20000 м    6/3 600 м средняя, верхняя 
[Sc diur, vesp|Ac lent|Ci sp]
-15.3 -18 80 -15  1015.3  744  319    -8  0.2     
12 22.02.18 020 (С) 20000 м    10/0 средняя, верхняя 
[Ac trans|Cs]
-17.1 -19 85 -17  1016.5  744  321           
15 22.02.18 020 (С) 4000 м  слаб. снег  10/4 600 м средняя 
[Sc|As op]
-15.2 -17.1 85 -15  1016.8  0.5  745  319           
18 22.02.18 020 (С) 4000 м  слаб. снег  10/0 средняя 
[As op]
-18.8 -20.7 85 -19  1017.9  0.7  745  324           
21 22.02.18 360 (С) 20000 м  {снег}  8/3 600 м верхняя 
[Sc|Ci fib]
-24.5 -27.1 79 -28  1019.3  0.9  746  332  -24.5    59  равномерный
сухой снег
100% 
03 23.02.18 220 (ЮЗ) 20000 м    6/3 600 м верхняя 
[Cu med, cong|Ci fib]
-8 -14.6 59 -8  1017.7  -1.5  746  311           
06 23.02.18 320 (СЗ) 20000 м  {ливн. осадки}  9/4 600 м кучево-дожд., верхняя 
[Cb cap|Ci]
-8.5 -18.2 45 -12  1017.7  -0.1  746  312           
12 23.02.18 020 (С) 20000 м    ясно 
-20.4 -22.4 84 -21  1023.6  2.4  749  328           
15 23.02.18 250 (З) 10 км  слаб. снег  10/0 верхняя 
[Cs]
-20.2 -22.5 82 -20  1024.5  0.9  750  328           
18 23.02.18 тихо ()   20000 м  {снег}  10/0 верхняя 
[Cs]
-22.5 -25 80 -23  1025.1  0.4  750  331           
Время (UTC), дата Ветер
(°,м/с) 
Видим.   Явления Облачность Т
(°С)
Тd
(°С)
f(%) Тe
(°С)
Pmin
(гПа)
dP
(гПа)
Po
(мм)
O2
(г/м3)
Тmin Tmax R s Состояние
почвы

Для получения пояснительной информации подведите курсор к названию столбца.

ПОГОДА в Гвасюги - архив

Всё, что Вы хотите узнать о погоде в Гвасюги - удобно и подробно!

Выберите нужную дату (начиная с 1 января 2015* года) и нажмите кнопку "Найти".
Будут отображены архивные сводки погоды по пункту Гвасюги, начиная с указанной даты.


Отображать данные в формате CSV (для использования в таблицах Excel)


Внимание! Наш архив погоды предназначен исключительно для личного некоммерческого использования в познавательных целях. Если Вам необходимы официальные справки о состоянии погоды (для производственных, юридических, коммерческих и т.п. целей), обращайтесь в органы Росгидромета.

*Примечание: данная дата относится к архиву по метеостанциям СССР (Россия, СНГ, Балтия).
Архив по метеостанциям Зарубежной Европы и Азии (кроме Китая) хранится 10 дней, по другим регионам земного шара (Китай, Африка, Америка, Австралия, Океания) - 1 день.

Гвасюги - район местоположения метеостанции


Название, широта, долгота, высота метеостанции:
Гвасюги 47.7°ш. 136.2°д. 180 м над ур. моря [Российская Федерация]

Дополнительная информация

В oтличие oт бoльшинства пoгoдных сайтoв мы публикуем пoдрoбную метеoинфoрмацию в детальнoм прoфессиoнальнoм фoрмате.

Характеристики температуры и влажнoсти вoздуха измеряются на высoте 2 м в тени вдали oт зданий и деревьев.
Скoрoсть ветра измеряется на высoте 10 м (на урoвне рoста челoвека скoрoсть ветра ниже в 1.5-2 раза). Если метеoстанция нахoдится в гoрoде или в лесу, тo скoрoсть ветра занижена на 2-4 м/с пo сравнению с oткрытым местoм. Скoрoсть ветра над акватoриями крупных рек и oзёр, а также на вершинах хoлмoв на 2-5 м/с выше, чем в oбычных услoвиях.
Атмoсфернoе давление в разных тoчках местнoсти мoжет значительнo oтличаться oт давления на метеoстанции, в зависимoсти oт услoвий рельефа (при пoдъёме на 10 м давление пoнижается примернo на 1 мм рт.ст.).